Regional Weather Roundup
Issued by NWS

Home | Current Version | Previous Version | Text Only | Print | Product List | Glossary Off
Versions: 1 2 3 4 5 6 7 8 9 10 11 12 13 14 15 16 17 18 19 20 21 22 23 24 25 26 27 28 29 30 31 32 33 34 35 36 37 38 39 40 41 42 43 44 45 46 47 48 49 50

000
ASUS45 KBOU 271907
RWRCO

WEATHER ROUNDUP FOR COLORADO
NATIONAL WEATHER SERVICE DENVER/BOULDER CO
100 PM MDT WED AUG 27 2014

NOTE: "FAIR" INDICATES FEW OR NO CLOUDS BELOW 12000 FEET WITH NO
SIGNIFICANT WEATHER AND/OR OBSTRUCTIONS TO VISIBILITY.

COZ001>005-013-030-031-272000-
...NORTHWEST COLORADO...

CITY           SKY/WX    TMP DP  RH WIND       PRES   REMARKS
CRAIG          CLOUDY    62  53  72 CALM      30.26F
HAYDEN         PTSUNNY   55  46  71 NW13      30.28S THUNDER
MEEKER         PTSUNNY   65  51  60 CALM      30.26F
MOUNT WERNER   NOT AVBL
STEAMBOAT SPGS PTSUNNY   60  49  66 SW9       30.28F
WALDEN         MOSUNNY   61  37  41 SW12G17   30.31F
$$

COZ006>008-011-272000-
...WEST CENTRAL VALLEYS...

CITY           SKY/WX    TMP DP  RH WIND       PRES   REMARKS
GRAND JUNCTION TSTM      57  53  86 N7        30.23F
MONTROSE       PTSUNNY   68  52  56 N5        30.28F
EAGLE          NOT AVBL
RIFLE          PTSUNNY   65  49  56 NW3       30.25F
DELTA          MOSUNNY   73  51  46 SE5       30.25F
NUCLA          MOSUNNY   70  48  46 SW8G17    30.32F
$$

COZ017>023-064>068-272000-
...SOUTHWEST COLORADO...

CITY           SKY/WX    TMP DP  RH WIND       PRES   REMARKS
DURANGO        PTSUNNY   68  48  48 SW12      30.35F
CORTEZ         MOSUNNY   67  50  54 NW6       30.33F
PAGOSA SPRINGS PTSUNNY   67  42  39 SW10G18   30.40F
TELLURIDE      CLOUDY    55  41  58 SE8       30.45F
WOLF CREEK PAS CLOUDY    41  41 100 SW17G28   30.59F
$$

COZ009-010-012-014-032>034-037-058>063-272000-
...CENTRAL COLORADO...

CITY           SKY/WX    TMP DP  RH WIND       PRES   REMARKS
ASPEN          MOSUNNY   63  42  46 NW9       30.33F
BUENA VISTA    MOSUNNY   69  31  24 W8G20     30.30F
COPPER MTN     CLOUDY    41  36  81 SW5G28    30.58R
BERTHOUD PASS  FOG       41  37  87 N7        30.59S VSB 1/4
COTTONWOOD PAS MOSUNNY   63  30  29 W13G24    30.42F
GUNNISON       MOSUNNY   63  39  42 SW9       30.37F
KREMMLING      CLOUDY    59  41  51 SW14G23   30.34S
LEADVILLE      PTSUNNY   53  37  54 NE10G16   30.43F
SALIDA         PTSUNNY   72  38  29 W9        30.37F
SUNLIGHT       CLOUDY    52  46  82 CALM      30.51F THUNDER
WILKERSON PASS NOT AVBL
$$

COZ069>075-272000-
...SAN LUIS VALLEY/SANGRE DE CRISTO MOUNTAINS...

CITY           SKY/WX    TMP DP  RH WIND       PRES   REMARKS
ALAMOSA        CLOUDY    68  43  40 SW6       30.32F
LA VETA PASS   NOT AVBL
SAGUACHE       CLOUDY    61  48  63 E6        30.35F
$$

COZ035-036-038>040-272000-
...NORTHERN COLORADO FRONT RANGE...

CITY           SKY/WX    TMP DP  RH WIND       PRES   REMARKS
DENVER INTL AP MOSUNNY   73  57  57 VRB6      30.14F
DMNS CITY PARK   N/A     74  55  50 NW3       30.13F
AURORA         MOSUNNY   73  56  57 NW7       30.16F
FRONT RANGE AP NOT AVBL
ERIE MUNI ARPT SUNNY     74  55  51 N7        30.13F
BOULDER MUN AP SUNNY     72  54  53 NE7       30.14F
CENTENNIAL     MOSUNNY   73  52  47 NW7       30.17F
BROOMFIELD     MOSUNNY   73  52  46 VRB3      30.17F
FORT COLLINS   MOSUNNY   72  55  56 NE6       30.15F
LONGMONT       MOSUNNY   76  57  52 NE8       30.15F
$$

COZ041-046-047-076>085-087-088-272000-
...PIKES PEAK/PALMER DIVIDE AND SOUTHERN FOOTHILLS...

CITY           SKY/WX    TMP DP  RH WIND       PRES   REMARKS
COLO. SPRINGS  MOSUNNY   74  51  44 SE6       30.19F
A. F. ACADEMY  SUNNY     72  54  53 SE7G18    30.20F
ELLICOTT       MOSUNNY   73  52  47 SW8       30.18F
FALCON         SUNNY     71  52  51 S6        30.24F
FORT CARSON    SUNNY     75  56  51 NE5       30.16F
LIMON          MOSUNNY   74  56  53 S7G17     30.15F
MONUMENT HILL  SUNNY     70  50  49 N5        30.23F
TRINIDAD       SUNNY     77  51  40 VRB3      30.18F
$$

COZ042>045-048>051-090-091-272000-
...NORTHEAST COLORADO...

CITY           SKY/WX    TMP DP  RH WIND       PRES   REMARKS
GREELEY ARPT   MOSUNNY   73  55  53 E6        30.13F
AKRON          PTSUNNY   74  60  61 SE9       30.12F
BURLINGTON     CLOUDY    75  62  64 S16       30.11F
WRAY             N/A     79  63  57 S14G22    30.09S
STERLING       PTSUNNY   79  64  61 S7        30.08F
HOLYOKE        PTSUNNY   79  64  61 S6        30.10S
FORT MORGAN    MOSUNNY   76  57  51 CALM      30.11F
$$

COZ086-089-092>099-272000-
...SOUTHEAST COLORADO...

CITY           SKY/WX    TMP DP  RH WIND       PRES   REMARKS
PUEBLO         SUNNY     81  52  36 S7        30.09F
LA JUNTA       NOT AVBL
LAMAR          PTSUNNY   82  62  50 S9        30.05F
SPRINGFIELD      N/A     81  61  50 SW12G22   30.12F
$$



USA.gov is the U.S. government's official web portal to all federal, state and local government web resources and services.